Regional Weather Roundup
Issued by NWS

Home | Current Version | Previous Version | Graphics & Text | Print | Product List | Glossary Off
Versions: 1 2 3 4 5 6 7 8 9 10 11 12 13 14 15 16 17 18 19 20 21 22 23 24 25 26 27 28 29 30 31 32 33 34 35 36 37 38 39 40 41 42 43 44 45 46 47 48 49 50

000
ASUS43 KMKX 261800
RWRWI

WISCONSIN REGIONAL WEATHER ROUNDUP
NATIONAL WEATHER SERVICE MILWAUKEE/SULLIVAN WI
1200 PM CST WED NOV 26 2014

NOTE: "FAIR" INDICATES FEW OR NO CLOUDS BELOW 12,000 FEET WITH NO
SIGNIFICANT WEATHER AND/OR OBSTRUCTIONS TO VISIBILITY.

WIZ001-002-006>008-014>016-023>028-261900-
NORTHWEST WISCONSIN

CITY           SKY/WX    TMP DP  RH WIND       PRES   REMARKS
SUPERIOR ARPT  CLOUDY    24  14  67 N6        30.22S WCI  17
ASHLAND        LGT SNOW  24  20  84 SW5       30.18F FOG     WCI  18
6HR MIN TEMP:  18; 6HR MAX TEMP:  24; 6HR PCP:  0.01;

HAYWARD        LGT SNOW  23  15  71 N5        30.15F WCI  17
6HR MIN TEMP:  20; 6HR MAX TEMP:  23; 6HR PCP: TRACE;

SIREN          FAIR      25  15  66 N8        30.18F WCI  16
CUMBERLAND     CLOUDY    25  18  74 NE5       30.15F WCI  19
RICE LAKE      CLOUDY    24  17  75 NW3       30.17F
CHETEK         CLOUDY    24  15  67 CALM      30.16F
LADYSMITH      LGT SNOW  24  18  79 N5        30.16F WCI  18
EAU CLAIRE     NOT AVBL
MENOMONIE      LGT SNOW  25  20  82 N6        30.17S WCI  18
NEW RICHMOND   LGT SNOW  25  21  83 N3        30.17F
OSCEOLA        LGT SNOW  26  22  85 NW5       30.21S WCI  20
$$

WIZ003>005-009-010-017-018-261900-
NORTH CENTRAL WISCONSIN

CITY           SKY/WX    TMP DP  RH WIND       PRES   REMARKS
MANITOWISH WTR LGT SNOW  20  17  88 W3        30.11S
ARBOR VITAE    LGT SNOW  22  18  86 CALM      30.10S
WOODRUFF       LGT SNOW  22  18  86 CALM      30.10S
RHINELANDER    LGT SNOW  21  16  81 W5        30.10S WCI  15
6HR MIN TEMP:  12; 6HR MAX TEMP:  21; 6HR PCP: TRACE;

EAGLE RIVER    LGT SNOW  20  15  81 CALM      30.09F
LAND O LAKES   LGT SNOW  22  17  82 W3        30.10F
PHILLIPS       LGT SNOW  21  17  84 W3        30.12F
TOMAHAWK       CLOUDY    21  16  81 CALM      30.12S
MEDFORD        CLOUDY    23  15  72 CALM      30.11S
MERRILL        CLOUDY    22  17  81 CALM      30.12S
$$

WIZ029-030-035-036-043>047-261900-
CENTRAL WISCONSIN

CITY           SKY/WX    TMP DP  RH WIND       PRES   REMARKS
WAUSAU         CLOUDY    22  18  85 CALM      30.11F
6HR MIN TEMP:  16; 6HR MAX TEMP:  23;

MOSINEE        NOT AVBL
MARSHFIELD     CLOUDY    22  16  78 S3        30.12F
6HR MIN TEMP:  17; 6HR MAX TEMP:  23;

STEVENS POINT  PTSUNNY   19  17  95 CALM      30.14F
WAUPACA        CLOUDY    23  20  91 CALM      30.17R FOG
WAUTOMA        NOT AVBL
WISC RAPIDS    FAIR      23  15  71 CALM      30.15F
6HR MIN TEMP:  15; 6HR MAX TEMP:  23;

CAMP DOUGLAS   NOT AVBL
$$

WIZ011>013-019>022-031-037>040-048>050-261900-
NORTHEAST WISCONSIN

CITY           SKY/WX    TMP DP  RH WIND       PRES   REMARKS
ANTIGO         CLOUDY    18  17  95 CALM      30.10F FOG
SHAWANO        CLOUDY    22  20  91 CALM      30.16F
OCONTO         CLOUDY    21  18  86 CALM      30.17F
STURGEON BAY   MOSUNNY   25  14  63 CALM      30.15F
6HR MIN TEMP:  12; 6HR MAX TEMP:  27;

GREEN BAY      CLOUDY    23  17  78 N7        30.16F WCI  15
6HR MIN TEMP:  12; 6HR MAX TEMP:  24;

MANITOWOC      NOT AVBL
APPLETON       CLOUDY    23  19  86 VRB5      30.14F WCI  17
CLINTONVILLE   CLOUDY    21  19  93 CALM      30.16S
OSHKOSH        CLOUDY    23  18  81 MISG      30.14F
6HR MIN TEMP:  11; 6HR MAX TEMP:  23;

$$

WIZ032>034-041-042-053>061-261900-
SOUTHWEST WISCONSIN

CITY           SKY/WX    TMP DP  RH WIND       PRES   REMARKS
LA CROSSE      CLOUDY    27  17  66 CALM      30.14S
6HR MIN TEMP:  20; 6HR MAX TEMP:  27;

SPARTA         PTSUNNY   27  19  69 N3        30.14F
VIROQUA        FAIR      24  19  83 E7        30.08F WCI  16
BOSCOBEL       CLOUDY    23  18  81 N7        30.12F HAZE    WCI  15
6HR MIN TEMP:  11; 6HR MAX TEMP:  24;

PRAIRIE DU CHI CLOUDY    26  21  80 E6        30.10F WCI  20
PLATTEVILLE    CLOUDY    23  22  95 E9        30.09S WCI  13
$$

WIZ056-057-062-063-064-067-068-261900-
SOUTH CENTRAL WISCONSIN

CITY           SKY/WX    TMP DP  RH WIND       PRES   REMARKS
REEDSBURG      CLOUDY    19  17  93 S3        30.13F FOG
BARABOO/DELLS  CLOUDY    19  18  96 NE3       30.12F FOG
LONE ROCK      NOT AVBL
MINERAL POINT  CLOUDY    25  23  93 E5        30.08F FOG     WCI  19
MADISON        CLOUDY    20  18  92 VRB3      30.13F FOG
6HR MIN TEMP:  11; 6HR MAX TEMP:  20;

MIDDLETON      CLOUDY    23  22  94 S6        30.12F WCI  16
WATERTOWN      CLOUDY    16  15  97 CALM      30.14S FOG
MONROE         CLOUDY    23  23 100 E5        30.08F FOG     WCI  17
JANESVILLE     MOSUNNY   25  23  93 SE5       30.11F WCI  19
$$

WIZ051-052-058>065-066-070>072-261900-
SOUTHEAST WISCONSIN

CITY           SKY/WX    TMP DP  RH WIND       PRES   REMARKS
MILWAUKEE      PTSUNNY   28  19  69 CALM      30.13F
6HR MIN TEMP:  14; 6HR MAX TEMP:  30;

WAUKESHA       MOSUNNY   21  21 100 W3        30.13F
MILWAUKEE/TIMM NOT AVBL
RACINE         CLOUDY    27  21  78 CALM      30.14F
6HR MIN TEMP:  16; 6HR MAX TEMP:  27;

BURLINGTON     PTSUNNY   22  20  92 CALM      30.13F FOG
KENOSHA        CLOUDY    25  21  85 W3        30.13F FOG
6HR MIN TEMP:  15; 6HR MAX TEMP:  25;

FOND DU LAC    CLOUDY    23  18  81 VRB3      30.14F
6HR MIN TEMP:   9; 6HR MAX TEMP:  23; 6HR PCP: TRACE;

SHEBOYGAN      PTSUNNY   25  19  78 N7        30.14F WCI  17
6HR MIN TEMP:  18; 6HR MAX TEMP:  26;

WEST BEND      PTSUNNY   28  19  69 CALM      30.13F
JUNEAU         PTSUNNY   19  17  90 CALM      30.15S FOG
$$

LSZ147-162-261900-
LAKE SUPERIOR

STATION/POSITION TIME  TEMP    WIND        PRES    WAVE
                       AIR SEA DIR/SP/G            HT/PER
                 (UTC) (F)     (DEG/KT/KT) (MB)    (FT/S)
DEVILS ISLAND    1700   24      10/ 14/ 16 1023.4R
PORT WING        1740   24     330/  7/ 12 1022.7F
SAXON HARBOR     1700   23     230/  4/  7 1022.0S
$$

LMZ867-665-643>646-261900-
LAKE MICHIGAN

STATION/POSITION TIME  TEMP    WIND        PRES    WAVE
                       AIR SEA DIR/SP/G            HT/PER
                 (UTC) (F)     (DEG/KT/KT) (MB)    (FT/S)
CHAMBERS ISLAND  1700   24      CALM  /  4 1022.0F
N MID LAKE BUOY  1650   28 42  330/  6/ 10 1022.4F   1
NORTHPORT PIER   1720   27     300/  6/ 11 1021.3F
SISTER BAY       1658             CALM       N/A
ALGOMA LAKESHORE 1613          340/  5/  7   N/A
KEWAUNEE LAKESHO 1700   23     320/  5/ 10 1020.6F
SHEBOYGAN LAKESH 1700   25 36  340/  6/  7 1022.3F
PORT WASHINGTON  1700   28     280/  2/  5 1021.7F
MILWAUKEE LAKESH 1700   30     310/  1/  2   N/A
S MID LAKE BUOY  1650   31 42  150/ 12/ 16 1021.6F   1/ 3
KENOSHA   LAKESH 1700   24     250/  4/  5 1020.7F
$$

TC  - TEMPERATURE IN CELSIUS
VSB - VISIBILITY IN STATUTE MILES
WCI - WIND CHILL INDEX
HX  - HEAT INDEX




USA.gov is the U.S. government's official web portal to all federal, state and local government web resources and services.